Flight Track Log - Related Links

Times and Time Zones

All times are in EDT time to prevent confusion due to time zone crossing. See the FLG3757 flight status page for this flight to view local times or setup timezone preferences in your user account.

Time Position Orientation Groundspeed Altitude Reporting Facility
EDT Latitude Longitude Course Direction KTS MPH feet Rate Location/Type
Mon 06:15:56 AM 42.1669 -76.0083 291° West 196 226 4,100  Level Cleveland Center
Mon 06:16:56 AM 42.1908 -76.0914 291° West 237 273 6,000 2,083 Climbing Cleveland Center
Mon 06:17:57 AM 42.2172 -76.1828 291° West 253 291 8,300 2,016 Climbing Cleveland Center
Mon 06:18:58 AM 42.2481 -76.2819 293° West 276 318 10,100 1,475 Climbing Cleveland Center
Mon 06:19:59 AM 42.2886 -76.4150 292° West 337 388 11,300 1,289 Climbing Cleveland Center
Mon 06:20:59 AM 42.3264 -76.5422 292° West 361 415 12,700 1,736 Climbing Cleveland Center
Mon 06:22:00 AM 42.3658 -76.6689 293° West 367 422 14,800 1,525 Climbing Cleveland Center
Mon 06:23:01 AM 42.4036 -76.7986 292° West 370 426 15,800 1,328 Climbing Cleveland Center
Mon 06:24:02 AM 42.4419 -76.9303 292° West 375 432 17,500 1,131 Climbing Cleveland Center
Mon 06:25:03 AM 42.4806 -77.0603 292° West 375 432 18,100 787 Climbing Cleveland Center
Mon 06:26:04 AM 42.5186 -77.1906 292° West 372 428 19,100 984 Climbing Cleveland Center
Mon 06:27:05 AM 42.5425 -77.3286 283° West 377 434 20,100 934 Climbing Cleveland Center
Mon 06:28:06 AM 42.5578 -77.4856 278° West 385 443 21,000 787 Climbing Cleveland Center
Mon 06:29:07 AM 42.5717 -77.6319 277° West 389 448 21,700 694 Climbing Cleveland Center
Mon 06:30:07 AM 42.5853 -77.7803 277° West 398 458 22,400 694 Climbing Cleveland Center
Mon 06:31:08 AM 42.5989 -77.9281 277° West 401 461 23,100 738 Climbing Cleveland Center
Mon 06:32:09 AM 42.6119 -78.0797 277° West 405 466 23,900 738 Climbing Cleveland Center
Mon 06:33:10 AM 42.6250 -78.2308 277° West 404 465 24,600 689 Climbing Cleveland Center
Mon 06:34:11 AM 42.6372 -78.3828 276° West 405 466 25,300 689 Climbing Cleveland Center
Mon 06:35:12 AM 42.6508 -78.5342 277° West 404 465 26,000 689 Climbing Cleveland Center
Mon 06:36:13 AM 42.6631 -78.6856 276° West 404 465 26,700 738 Climbing Cleveland Center
Mon 06:37:14 AM 42.6775 -78.8667 276° West 403 464 27,500 639 Climbing Cleveland Center
Mon 06:38:15 AM 42.6894 -79.0156 276° West 397 457 28,000 246 Climbing Cleveland Center
Mon 06:39:16 AM 42.7014 -79.1678 276° West 406 467 28,000  Level Cleveland Center
Mon 06:40:17 AM 42.7128 -79.3253 276° West 419 482 28,000  Level Cleveland Center
Mon 06:41:18 AM 42.7236 -79.4831 275° West 421 484 28,000  Level Cleveland Center
Mon 06:42:20 AM 42.7361 -79.6419 276° West 423 487 28,000  Level Cleveland Center
Mon 06:43:20 AM 42.7475 -79.8014 276° West 423 487 28,000  Level Cleveland Center
Mon 06:44:21 AM 42.7453 -79.9586 269° West 417 480 28,000  Level Cleveland Center
Mon 06:45:22 AM 42.7375 -80.1253 266° West 419 482 28,000  Level Cleveland Center
Mon 06:46:24 AM 42.7317 -80.2853 267° West 422 486 28,000  Level Cleveland Center
Mon 06:47:25 AM 42.7247 -80.4431 267° West 416 479 28,000  Level Cleveland Center
Mon 06:48:45 AM 42.7153 -80.6533 267° West 414 476 28,000  Level Cleveland Center
Mon 06:49:46 AM 42.7097 -80.8164 267° West 427 491 28,000  Level Cleveland Center
Mon 06:50:47 AM 42.6972 -80.9697 264° West 413 475 28,000  Level Cleveland Center
Mon 06:51:52 AM 42.6761 -81.1503 261° West 413 475 28,000  Level Cleveland Center
Mon 06:52:53 AM 42.6578 -81.3061 261° West 414 476 28,000  Level Cleveland Center
Mon 06:53:54 AM 42.6392 -81.4603 261° West 413 475 28,000 -541 Level Cleveland Center
Mon 06:54:55 AM 42.6214 -81.6158 261° West 414 476 26,900 -1,820 Descending Cleveland Center
Mon 06:55:56 AM 42.6017 -81.7775 261° West 426 490 24,300 -2,557 Descending Cleveland Center
Mon 06:56:57 AM 42.5847 -81.9258 261° West 400 460 21,700 -2,439 Descending Cleveland Center
Mon 06:57:59 AM 42.5675 -82.0703 261° West 391 450 19,300 -2,120 Descending Cleveland Center
Mon 06:59:10 AM 42.5475 -82.2458 261° West 385 443 17,000 -2,079 Descending Cleveland Center
Mon 06:59:40 AM 42.5381 -82.3211 260° West 380 437 15,800 -2,118 Descending Cleveland Center
Mon 07:00:01 AM 42.5319 -82.3539 256° West 382 440 15,200 -2,361 Descending Cleveland Center
Mon 07:00:41 AM 42.5203 -82.4575 261° West 364 419 13,400 -2,323 Descending Cleveland Center
Mon 07:01:03 AM 42.5153 -82.4869 257° West 367 422 12,800 -1,315 Descending Cleveland Center
Mon 07:01:54 AM 42.4867 -82.6089 252° West 348 400 11,800 -984 Descending Cleveland Center
Mon 07:02:04 AM 42.4836 -82.6083 172° South 353 406 11,800 -1,200 Level Cleveland Center
Mon 07:02:49 AM 42.4500 -82.7117 246° West 318 366 10,700 -1,279 Descending Cleveland Center
Mon 07:03:05 AM 42.4450 -82.7183 225° Southwest 332 382 10,500 -1,400 Descending Cleveland Center
Mon 07:03:49 AM 42.4200 -82.8067 249° West 272 313 9,300 -1,355 Descending Cleveland Center
Mon 07:04:07 AM 42.4150 -82.8150 231° Southwest 294 338 9,100 -1,475 Descending Cleveland Center
Mon 07:04:50 AM 42.4086 -82.9067 265° West 259 298 7,800 -1,672 Descending Cleveland Center
Mon 07:05:08 AM 42.4042 -82.9336 257° West 268 308 7,400 -1,475 Descending Cleveland Center
Mon 07:05:51 AM 42.3950 -83.0067 260° West 268 308 6,300 -1,377 Descending Cleveland Center
Mon 07:06:09 AM 42.3914 -83.0314 259° West 265 305 6,000 -1,075 Descending Cleveland Center
Mon 07:06:58 AM 42.3806 -83.1147 260° West 251 289 5,100 -968 Descending Cleveland Center
Mon 07:07:11 AM 42.3775 -83.1269 251° West 263 303 5,000 -295 Descending Cleveland Center
Mon 07:07:59 AM 42.3617 -83.1969 253° West 203 234 4,800 -295 Descending Cleveland Center
Mon 07:08:12 AM 42.3586 -83.2014 227° Southwest 224 258 4,700 -1,279 Descending Cleveland Center
Mon 07:09:00 AM 42.3281 -83.2544 232° Southwest 191 220 3,500 -1,279 Descending Cleveland Center
Mon 07:09:13 AM 42.3236 -83.2558 193° South 198 228 3,400 -1,343 Descending Cleveland Center
Mon 07:10:07 AM 42.2769 -83.2925 210° Southwest 193 222 2,000 -1,355 Descending Cleveland Center
Mon 07:10:15 AM 42.2764 -83.2903 109° East 193 222 2,000 -885 Level Cleveland Center
Mon 07:11:08 AM 42.2347 -83.3233 210° Southwest 162 186 1,100 -689 Descending Cleveland Center
Mon 07:11:16 AM 42.2308 -83.3233 180° South 183 211 1,300 -171 Climbing Cleveland Center
Mon 07:12:18 AM 42.1961 -83.3508 210° Southwest 179 206 900 -387 Descending Cleveland Center
Mon 07:14:00 AM 42.2000 -83.3500 236° Southwest  Level FlightAware Approximate

Login

Don't have an account? Register now (free) for customized features, flight alerts, and more!